Regional Weather Roundup
Issued by NWS

Home | Current Version | Previous Version | Graphics & Text | Print | Product List | Glossary On
Versions: 1 2 3 4 5 6 7 8 9 10 11 12 13 14 15 16 17 18 19 20 21 22 23 24 25 26 27 28 29 30 31 32 33 34 35 36 37 38 39 40 41 42 43 44 45 46 47 48 49 50
000
ASUS43 KMKX 271121
RWRWI

WISCONSIN REGIONAL WEATHER ROUNDUP
NATIONAL WEATHER SERVICE MILWAUKEE/SULLIVAN WI
600 AM CDT SAT MAY 27 2017

NOTE: "FAIR" INDICATES FEW OR NO CLOUDS BELOW 12,000 FEET WITH NO
SIGNIFICANT WEATHER AND/OR OBSTRUCTIONS TO VISIBILITY.

WIZ001-002-006>008-014>016-023>028-271200-
NORTHWEST WISCONSIN

CITY           SKY/WX    TMP DP  RH WIND       PRES   REMARKS
SUPERIOR ARPT  NOT AVBL
ASHLAND        PTCLDY    54  52  93 SW7       29.83R
HAYWARD        FOG       47  45  93 CALM      29.85R VSB<1/4
SIREN          CLEAR     46  46  97 CALM      29.86R
CUMBERLAND     CLEAR     48  46  93 W5        29.86S
RICE LAKE      CLEAR     50  49  97 CALM      29.87S FOG
CHETEK         FOG       48  48 100 CALM      29.86S VSB 1/2
LADYSMITH      FOG       52  51  97 CALM      29.87R VSB<1/4
EAU CLAIRE     CLEAR     53  52  96 CALM      29.85S
MENOMONIE      CLEAR     53  49  87 CALM      29.86S
NEW RICHMOND   CLEAR     49  48  97 CALM      29.87S
OSCEOLA        CLEAR     46  46 100 CALM      29.90R
$$

WIZ003>005-009-010-017-018-271200-
NORTH CENTRAL WISCONSIN

CITY           SKY/WX    TMP DP  RH WIND       PRES   REMARKS
MANITOWISH WTR CLOUDY    54  54 100 SW3       29.85R FOG
ARBOR VITAE    CLOUDY    57  56  95 S3        29.85R FOG
WOODRUFF       CLOUDY    57  56  95 S3        29.85R FOG
RHINELANDER    PTCLDY    56  54  93 SW5       29.87R
EAGLE RIVER    CLOUDY    54  53  99 CALM      29.86R
LAND O LAKES   CLOUDY    55  54  95 CALM      29.87S
PHILLIPS       FOG       54  54 100 S3        29.86R VSB 1/4
TOMAHAWK       PTCLDY    53  52  97 CALM      29.87R FOG
MEDFORD        CLOUDY    54  54  98 SW5       29.87R FOG
MERRILL        FOG       50  50 100 CALM      29.87S VSB 1/2
$$

WIZ029-030-035-036-043>047-271200-
CENTRAL WISCONSIN

CITY           SKY/WX    TMP DP  RH WIND       PRES   REMARKS
WAUSAU         CLOUDY    55  54  96 S3        29.87R FOG
MOSINEE        CLOUDY    54  54 100 S5        29.89R FOG
MARSHFIELD     CLEAR     53  52  96 SW5       29.87R FOG
STEVENS POINT  CLOUDY    51  51 100 CALM      29.89R FOG
WAUPACA        PTCLDY    51  51  98 CALM      29.89R FOG
WAUTOMA        MOCLDY    48  48 100 CALM      29.91R
WISC RAPIDS    CLEAR     53  52  96 S3        29.90R FOG
CAMP DOUGLAS   CLEAR     50  50 100 SE3       29.88S FOG
$$

WIZ011>013-019>022-031-037>040-048>050-271200-
NORTHEAST WISCONSIN

CITY           SKY/WX    TMP DP  RH WIND       PRES   REMARKS
ANTIGO         PTCLDY    53  53 100 SW3       29.88R FOG
SHAWANO        CLOUDY    55  53  95 S3        29.89R FOG
OCONTO         CLOUDY    48  47  97 CALM      29.88R
STURGEON BAY   CLEAR     49  48  97 S5        29.89R
GREEN BAY      CLEAR     51  51 100 S3        29.89R
MANITOWOC      CLOUDY    48  47  96 CALM      29.90R
APPLETON       PTCLDY    52  52 100 CALM      29.87S
CLINTONVILLE   PTCLDY    52  50  93 CALM      29.89R FOG
OSHKOSH        CLEAR     48  48 100 CALM      29.89R FOG
$$

WIZ032>034-041-042-053>061-271200-
SOUTHWEST WISCONSIN

CITY           SKY/WX    TMP DP  RH WIND       PRES   REMARKS
LA CROSSE      CLEAR     59  57  93 S5        29.87S FOG
SPARTA         CLEAR     46  46  99 CALM      29.90R
VIROQUA        CLOUDY    55  55 100 MISG      29.90S
BOSCOBEL       FOG       52  51  97 CALM      29.91R VSB<1/4
PRAIRIE DU CHI FOG       55  54  97 E3        29.89F VSB 1/2
PLATTEVILLE      N/A     53  53 100 CALM      29.92R VSB 1/2
$$

WIZ056-057-062-063-064-067-068-271200-
SOUTH CENTRAL WISCONSIN

CITY           SKY/WX    TMP DP  RH WIND       PRES   REMARKS
REEDSBURG      CLEAR     49  49 100 CALM      29.90S FOG
BARABOO/DELLS    N/A     48  47  96 CALM      29.91R FOG
LONE ROCK      FOG       52  51  97 CALM      29.91R VSB<1/4
MINERAL POINT  FOG       52  52 100 CALM      29.92R VSB 1/4
MADISON        FOG       48  48 100 CALM      29.91R VSB 1/2
MIDDLETON      CLEAR     47  47 100 CALM      29.91R
WATERTOWN      FOG       46  46 100 CALM      29.90R VSB 1/4
MONROE         CLEAR     52  52 100 CALM      29.92R FOG
JANESVILLE     FOG       48  48 100 CALM      29.90R VSB 1/4
$$

WIZ051-052-058>065-066-070>072-271200-
SOUTHEAST WISCONSIN

CITY           SKY/WX    TMP DP  RH WIND       PRES   REMARKS
MILWAUKEE      PTCLDY    52  51  97 CALM      29.89S
WAUKESHA       FOG       46  46 100 CALM      29.90S VSB 1/4
MILWAUKEE/TIMM   N/A     50  46  87 CALM      29.90R FOG
RACINE         CLEAR     51  49  92 CALM      29.91R FOG
KENOSHA        FOG       50  50 100 CALM      29.90R VSB 1
FOND DU LAC    CLEAR     50  47  89 S3        29.91R FOG
SHEBOYGAN      CLEAR     47  47 100 CALM      29.90R FOG
WEST BEND      CLEAR     46  46 100 CALM      29.90R
JUNEAU         FOG       48  48  99 CALM      29.92R VSB<1/4
$$

LSZ147-162-271200-
LAKE SUPERIOR

STATION/POSITION TIME  TEMP    WIND        PRES    WAVE
                       AIR SEA DIR/SP/G            HT/PER
                 (UTC) (F)     (DEG/KT/KT) (MB)    (FT/S)
W MID LAKE BUOY  1050   39 37  280/  8/ 10 1009.7R   0
DEVILS ISLAND    1100   44     260/  9/ 10 1010.2R
PORT WING        1040   44     140/  2/  4 1010.2R
SAXON HARBOR     1040   53     200/  2/  3 1009.5R
$$

LMZ867-665-643>646-271200-
LAKE MICHIGAN

STATION/POSITION TIME  TEMP    WIND        PRES    WAVE
                       AIR SEA DIR/SP/G            HT/PER
                 (UTC) (F)     (DEG/KT/KT) (MB)    (FT/S)
CHAMBERS ISLAND  1040   56     180/  3/  7 1011.2S
N MID LAKE BUOY  1050   44 42  170/  6/  6 1013.0R   0
NORTHPORT PIER   1040   49     160/  5/  7 1011.5S
SISTER BAY       1036   51     160/  7/  8   N/A
ALGOMA LAKESHORE 1046             CALM       N/A
KEWAUNEE LAKESHO 1054   49     210/  1/  3 1011.9R
SHEBOYGAN LAKESH 1100   53     280/  3/  4 1012.4R
PORT WASHINGTON  1030   50     270/  2/  2 1012.9S
ATWATER BUOY     1009   49      CALM  /  2 1012.0S
MILWAUKEE LAKESH 1100   53        CALM       N/A
S MID LAKE BUOY  1050   48 46   10/  4/  4 1012.6R   0
KENOSHA   LAKESH 1100   52        CALM     1012.2
$$

TC  - TEMPERATURE IN CELSIUS
VSB - VISIBILITY IN STATUTE MILES
WCI - WIND CHILL INDEX
HX  - HEAT INDEX




USA.gov is the U.S. government's official web portal to all federal, state and local government web resources and services.